Voltar ao catálogo

STARLINK-37948

AtivoComunicaçõesSSO
NORAD 69670·PAYLOAD·🇺🇸 United States

Lançado Jun 21, 2026 de Vandenberg Space Force Base

Loading…

Próximas Passagens (próximas 24 horas)

TLE

AtualizadoSource: CelesTrak SupGP

Época: Sep 15, 2026, 03:11 UTC

1 69670C 26143X   26258.13312500 -.00006101  00000+0 -18936-3 0  2589
2 69670  97.2835 301.4200 0000845  94.7047 183.0838 15.33446373    13

Acompanhe STARLINK-37948 em tempo real com AllMySat

Download on the App Store